Location: Dommiers
(49.3276°N, 3.2136°E)
Time: 10:07:12
(UTC+00:00)

Daily predictions for brighter satellites

Satellite Brightness Start Highest point End
(mag) Time Altitude Azimuth Time Altitude Azimuth Time Altitude Azimuth
COSMOS 2406 4.1 19:53:07 10° SSE 19:58:01 30° ESE 20:02:55 10° NE
Cosmos 1980 Rocket 2.7 19:52:56 10° NW 19:58:34 60° WSW 20:04:07 10° S
Cosmos 1782 2.6 19:56:16 10° S 19:59:42 53° E 20:03:09 10° NNE
Okean-O 3.2 19:55:58 10° SE 20:00:04 41° ENE 20:04:12 10° N
CZ-4 R/B 2.0 19:56:51 10° S 20:00:23 51° W 20:03:57 10° NNW
MetOp-B 4.2 19:55:19 10° SSE 20:00:40 85° ENE 20:06:03 10° NNW
Cosmos 724 4.4 19:54:54 10° SW 20:00:57 88° SE 20:06:53 10° NE
Ariane Rocket 4.4 19:58:59 10° ESE 20:02:56 23° ENE 20:06:54 10° N
Cosmos 1758 Rocket 4.5 20:02:20 10° N 20:06:21 33° ENE 20:10:21 10° SE
ASTEX 1 4.4 20:01:47 10° SSW 20:06:35 50° W 20:11:26 10° NNW
Spot 2 Rocket 3.7 20:03:07 10° SSE 20:08:01 58° ENE 20:12:58 10° N
Cosmos 1725 Rocket 4.0 20:03:26 10° S 20:09:41 83° E 20:15:57 10° N
Cosmos 2333 Rocket 2.9 20:05:15 10° NNW 20:10:41 43° NE 20:16:07 10° ESE
ATLAS 3B R/B 4.3 20:04:29 10° NW 20:11:14 35° WSW 20:17:39 10° S
ERS-1 Rocket 3.4 20:09:06 10° S 20:14:04 65° WSW 20:19:04 10° NNW
Tsikada Rocket 4.0 20:12:04 10° N 20:18:16 76° E 20:24:25 10° SSE
Cosmos 2016 Rocket 4.1 20:18:03 10° S 20:24:19 85° W 20:30:31 10° N
Cosmos 2360 Rocket 3.3 20:19:20 10° NNW 20:24:31 34° NE 20:29:39 10° ESE
Cosmos 1461 3.3 20:22:27 10° S 20:25:44 30° ESE 20:29:01 10° ENE
CZ-4B R/B 3.7 20:21:33 10° S 20:27:10 64° WSW 20:32:45 10° NNW
CZ-4C R/B 3.2 20:25:10 10° WSW 20:29:25 44° NW 20:34:53 10° NE
CZ-4B R/B 4.2 20:25:37 12° SE 20:29:40 37° ENE 20:34:08 10° N
Cosmos 1992 Rocket 4.0 20:25:22 10° S 20:30:31 65° ESE 20:35:41 10° NNE
Cosmos 1602 Rocket 4.5 20:26:38 10° N 20:30:34 33° ENE 20:33:50 14° SE
YAOGAN 11 4.2 20:29:53 10° NNE 20:34:17 59° ESE 20:38:41 10° S
ISS -3.2 20:32:59 10° W 20:36:18 60° N 20:39:37 10° ENE
Cosmos 2219 Rocket 3.5 20:32:55 10° NNW 20:37:50 29° NE 20:42:45 10° ESE
Cosmos 1437 Rocket 3.1 20:36:40 13° SSE 20:39:34 38° E 20:42:56 10° NNE
USA 290 4.4 20:39:46 11° E 20:39:46 11° E 20:40:39 10° E
SL-08 R/B 3.5 20:39:46 10° NNE 20:44:36 77° WNW 20:49:19 10° SSW
DEBRIS 3.3 20:43:10 10° WSW 20:46:09 85° SSE 20:55:01 10° E
Cosmos 1626 Rocket 3.5 20:42:39 10° N 20:47:03 88° E 20:51:00 13° S
Cosmos 2098 Rocket 4.0 20:44:22 15° SE 20:47:31 31° E 20:51:13 10° NNE
NOSS 3-3 (A) 3.8 20:43:34 10° SW 20:48:47 86° NW 20:55:08 10° NE
Terra 3.3 20:47:35 10° SSW 20:51:48 33° W 20:56:02 10° NNW
Cosmos 2151 2.8 20:50:55 10° N 20:55:04 79° E 20:58:09 17° SSE
Cosmos 2322 Rocket 2.5 20:50:57 10° NNW 20:56:33 57° NE 21:00:46 18° SE
Cosmos 1486 Rocket 4.3 20:51:35 10° NNW 20:56:47 58° ENE 21:00:35 18° SE
IRS-1C Rocket 4.2 20:53:40 16° SSE 20:57:46 63° ENE 21:02:59 10° N
Cosmos 1464 Rocket 4.5 20:53:50 15° SSE 20:58:27 42° E 21:04:13 10° NNE
Cosmos 909 Rocket 4.2 20:52:52 10° SW 20:59:11 83° NW 21:05:47 10° NE
Cosmos 2061 Rocket 4.2 20:53:11 10° SSW 20:59:24 75° WNW 21:05:44 10° N
Cosmos 2082 Rocket 3.0 20:55:16 10° SW 21:00:52 55° NW 21:06:29 10° NNE
USA 306 3.7 21:00:05 10° WNW 21:02:40 27° NNW 21:04:26 10° NE
Cosmos 1606 Rocket 4.3 21:03:16 21° SE 21:05:27 34° E 21:09:21 10° NNE
CZ-4B R/B 2.4 21:09:42 23° S 21:11:43 79° WSW 21:15:12 10° NNW
USA 186 3.3 21:11:04 12° SSW 21:13:06 25° W 21:15:29 10° NW
Cosmos 1726 Rocket 4.4 21:12:35 23° SE 21:13:58 28° E 21:17:27 10° NNE
Cosmos 540 Rocket 4.4 21:13:16 21° SE 21:15:20 28° E 21:19:42 10° NE
Okean O Rocket 2.9 21:11:29 10° SSW 21:15:26 36° W 21:19:25 10° NNW
NOSS 3-3 (C) 4.2 21:15:29 10° SW 21:20:47 67° NW 21:27:13 10° NE
Cosmos 1805 2.7 21:17:47 10° N 21:21:03 77° ENE 21:22:21 33° SSE
Cosmos 2278 3.8 21:16:53 10° NNW 21:22:37 74° WSW 21:26:23 22° SSE
Meteor 1-5 Rocket 4.3 21:19:42 10° N 21:25:28 80° ENE 21:29:21 23° SSE
COSMOS 2428 4.3 21:20:53 10° NNW 21:25:34 25° NE 21:30:13 10° E
SL-16 R/B 2.7 21:21:32 10° NW 21:27:05 55° WSW 21:30:55 20° S
Cosmos 1544 Rocket 4.3 21:23:00 10° SSW 21:27:14 52° WNW 21:31:29 10° N
CZ-2C R/B 1.8 21:27:14 46° SSE 21:27:56 90° SSE 21:30:44 10° NNW
Okean 1-7 Rocket 3.6 21:23:42 10° N 21:28:11 76° E 21:30:35 27° SSE
NOSS 3 (A) 4.3 21:29:08 10° NW 21:31:27 59° SW 21:31:48 52° S
NOSS 3-4 (A) 3.8 21:26:46 10° NW 21:33:28 79° SW 21:38:38 23° SSE
NOSS 3-4 (C) 3.9 21:27:23 10° NW 21:34:07 80° SW 21:39:18 23° SSE
Cosmos-2242 4.0 21:34:03 25° ESE 21:34:57 27° E 21:38:28 10° NNE
Cosmos 2034 Rocket 4.3 21:32:54 23° SSE 21:36:48 54° E 21:42:57 10° NNE
Cosmos 1933 4.2 21:37:02 11° SSW 21:40:27 44° WNW 21:44:07 10° N
Ariane Rocket 3.4 21:38:06 21° S 21:41:26 59° W 21:46:27 10° NNW
COSMOS 2406 4.0 21:36:23 10° SW 21:42:00 54° NW 21:47:39 10° NNE
SPOT 3 Rocket 4.4 21:41:43 16° SSW 21:45:28 43° W 21:50:23 10° NNW
Nadezhda 4 Rocket 4.0 21:46:14 10° NNW 21:52:22 77° W 21:56:13 24° S
Cosmos 2333 Rocket 3.2 21:49:42 10° NW 21:54:57 39° WSW 21:58:17 20° SSW
Helios 1B rocket 3.1 21:55:11 29° E 21:55:56 32° ENE 21:59:05 10° N
Cosmos 1763 Rocket 3.5 21:53:12 25° S 21:56:15 68° ESE 22:01:31 10° NNE
Cosmos 1825 Rocket 3.7 21:53:02 10° NNW 21:57:21 66° W 21:59:17 32° S
Okean 1 3.0 21:56:18 40° SSW 21:57:28 82° W 22:01:05 10° N
Cosmos 1470 4.3 21:55:27 10° NNE 21:57:51 18° ENE 21:58:12 18° ENE
Cosmos 1536 3.3 21:55:01 10° N 21:58:30 39° ENE 21:59:12 35° ESE
Cosmos 1707 2.9 21:59:51 34° ENE 21:59:51 34° ENE 22:02:00 10° NNE
Cosmos 2221 4.3 21:59:07 16° E 21:59:29 16° E 22:02:06 10° NE
Cosmos 1634 Rocket 4.4 21:57:45 29° SE 22:00:30 46° E 22:06:24 10° NNE
Cosmos 1833 4.1 21:57:58 22° SSW 22:01:42 70° ESE 22:07:19 10° NNE
Cosmos 1461 4.3 21:58:34 10° WSW 22:01:58 33° NW 22:05:21 10° NNE
Cosmos 2297 Rocket 4.2 22:01:44 11° E 22:02:04 11° E 22:03:50 10° ENE
Cosmos 1953 Rocket 3.4 21:59:06 10° N 22:03:29 85° E 22:04:56 41° SSE
Cosmos 44 3.6 21:58:54 10° NW 22:04:19 71° NE 22:06:56 30° SE
Cosmos 990 Rocket 3.9 21:59:29 10° NNW 22:04:41 84° WSW 22:06:54 35° SSE
Cosmos 2360 Rocket 2.7 22:03:14 10° NW 22:08:42 50° WSW 22:11:23 28° S
Cosmos 2195 Rocket 4.5 22:04:22 10° N 22:10:37 81° W 22:13:54 30° S
Cosmos 2322 4.3 22:05:11 10° NNW 22:10:43 49° NE 22:13:46 25° ESE
USA 290 3.0 22:12:10 30° WSW 22:13:18 47° WNW 22:16:22 10° NNE
ISS -3.5 22:09:59 10° WNW 22:13:19 67° NNE 22:14:19 41° E
BREEZE-M DEB (TANK) 3.2 22:12:13 10° W 22:13:11 21° W 22:13:11 21° W
Cosmos 2026 Rocket 4.0 22:08:35 10° N 22:15:01 88° W 22:18:17 31° S
Cosmos 2058 Rocket 3.1 22:14:25 45° SSE 22:15:30 62° E 22:19:47 10° NNE
Helios 1A 2.7 22:17:46 10° NNE 22:21:42 78° ESE 22:22:30 54° S
Cosmos 2219 Rocket 2.4 22:16:35 10° NW 22:22:11 62° WSW 22:24:29 35° S
Cosmos 1975 3.8 22:21:41 10° N 22:24:59 30° ENE 22:25:24 29° E
KORONAS-FOTON 3.6 22:25:06 57° E 22:25:06 57° E 22:28:21 10° NNE
Cosmos 1076 Rocket 4.2 22:22:34 10° NNW 22:26:38 44° W 22:28:03 32° SW
Cosmos 841 Rocket 4.2 22:28:15 32° ESE 22:29:04 34° ESE 22:33:46 10° NE
RESURS DK-1 2.8 22:27:44 10° NNW 22:31:37 50° NE 22:32:35 40° E
ARIANE 5 R/B 3.1 22:32:16 38° ESE 22:33:31 49° ENE 22:37:50 10° N
ALOS 2 3.3 22:33:58 34° ESE 22:35:11 42° ENE 22:39:21 10° N
Cosmos 2322 Rocket 3.6 22:35:31 10° NW 22:40:14 28° WSW 22:42:34 21° SW
Cosmos 1766 3.7 22:42:46 10° NNW 22:45:46 38° W 22:45:46 38° W
Cosmos 1271 Rocket 2.6 22:46:13 59° ENE 22:46:13 59° ENE 22:49:16 10° NNE
Cosmos 372 Rocket 3.8 22:41:16 10° NNW 22:46:24 82° WSW 22:47:53 47° SSE
Cosmos 1842 3.0 22:47:39 63° NNE 22:47:39 63° NNE 22:50:24 10° NNE
Lacrosse 4 Rocket 3.8 22:51:57 11° E 22:51:57 11° E 22:52:14 10° E
Spot 4 3.8 22:51:57 48° SSE 22:53:14 76° ENE 22:58:03 10° NNW
Meteor 2-9 Rocket 4.1 22:48:42 10° N 22:54:07 77° ENE 22:55:56 44° SSE
PSLV R/B 4.1 22:51:34 10° NNE 22:55:39 42° E 22:55:59 41° ESE
Cosmos 540 Rocket 4.3 22:52:54 17° SW 22:56:35 46° WNW 23:01:34 10° NNE
Cosmos 2237 Rocket 3.0 22:53:42 10° NNW 22:59:10 45° NE 23:02:17 24° ESE
Aureole 1 Rocket 4.3 22:54:33 10° NNW 23:00:13 54° WSW 23:02:46 35° SSW
BREEZE-M DEB (TANK) 4.3 22:43:08 10° WSW 23:00:48 79° SSE 23:04:54 10° ENE
CZ-2C R/B 3.8 22:58:58 23° ESE 23:01:23 34° ENE 23:06:02 10° N
Cosmos 1980 4.3 22:57:50 10° NNW 23:03:23 51° NE 23:06:13 27° ESE
ARGOS Delta rocket 4.1 22:59:57 10° NNE 23:05:06 67° E 23:06:31 47° SSE
Cosmos 2142 Rocket 4.5 23:05:17 40° S 23:07:38 74° E 23:13:51 10° NNE
Cosmos 1937 Rocket 3.4 23:02:51 10° NNW 23:08:01 85° ENE 23:09:26 49° SSE
Cosmos 2180 Rocket 4.5 23:06:36 40° S 23:08:57 73° E 23:15:16 10° NNE
COSMOS 2428 2.6 23:04:43 10° NNW 23:10:25 76° WSW 23:12:10 46° S
Cosmos 2227 Rocket 3.9 23:11:04 17° ESE 23:11:51 18° E 23:15:31 10° ENE
Cosmos-2242 4.4 23:10:18 23° WSW 23:11:52 30° WNW 23:15:32 10° N
NOSS 0 Rocket 3.8 23:06:49 10° NNW 23:13:02 90° NE 23:15:26 40° SSE
Cosmos 468 Rocket 4.4 23:10:30 28° SW 23:13:11 58° WNW 23:18:24 10° NNE
Meteor 1-11 Rocket 3.7 23:08:15 10° N 23:13:56 74° ENE 23:15:45 44° SSE
Meteor 1-10 Rocket 4.3 23:17:23 44° SSE 23:19:18 71° E 23:25:13 10° NNE
MetOp-A 4.1 23:18:10 43° SE 23:19:33 61° ENE 23:24:10 10° N
Cosmos 2263 Rocket 4.2 23:20:54 13° ESE 23:21:52 13° E 23:24:21 10° ENE
Cosmos 1812 Rocket 3.4 23:25:18 65° S 23:25:56 89° E 23:30:23 10° N
Cosmos 1238 Rocket 3.8 23:25:54 35° E 23:26:07 35° E 23:30:03 10° NNE
Helios 1B rocket 3.9 23:29:08 20° W 23:29:08 20° W 23:31:39 10° NW
Cosmos 1470 3.8 23:28:54 10° NNW 23:31:24 28° WNW 23:31:24 28° WNW
SeaSat 1 3.7 23:28:37 17° ESE 23:31:50 37° NE 23:36:19 10° NNW
USA 234 3.3 23:25:28 10° ENE 23:31:55 58° SE 23:34:29 37° SSW
CZ-2C R/B 3.5 23:28:20 10° NNE 23:34:03 61° E 23:35:48 43° SSE
Meteor 1-27 Rocket 3.9 23:32:34 43° SSE 23:34:19 61° E 23:39:59 10° NNE
ACS3 Solar Sail 3.2 23:30:13 10° NE 23:35:04 25° E 23:37:20 20° ESE
Helios 1B 4.4 23:30:54 10° NNE 23:35:11 83° WNW 23:35:46 65° SSW
Cosmos 2221 2.8 23:35:23 47° WSW 23:36:04 53° WNW 23:40:10 10° N
BlueWalker 3 4.2 23:41:17 13° E 23:41:17 13° E 23:41:52 10° E
Cosmos 1898 Rocket 4.1 23:36:31 10° NW 23:41:20 40° WSW 23:42:14 36° SW
Cosmos 2297 Rocket 2.2 23:43:29 48° S 23:45:01 70° ESE 23:50:39 10° NNE
Meteor 2-20 4.4 23:46:32 43° S 23:48:43 88° W 23:54:51 10° N
ISS -1.1 23:46:52 10° WNW 23:47:14 12° W 23:47:14 12° W
Landsat 5 4.1 23:47:40 10° NNE 23:51:31 39° E 23:51:40 39° ESE
Cosmos 1842 Rocket 4.2 23:53:33 39° ESE 23:54:10 41° E 23:58:19 10° NNE
GP-B 3.2 23:51:03 10° N 23:55:23 62° W 23:56:01 54° SW
